Location: Campillo
(40.8621°N, 4.2488°W)
Time: 10:41:36
(UTC+00:00)

USA 290 - Pass Details

Date: 30 September 2021
Orbit: 397 x 413 km, 73.6° (Epoch: 06 October)

Event Time Altitude Azimuth Distance (km) Brightness Sun altitude
Exits shadow 04:27:13 19° 348° (NNW) 1,048 4.3 -20.6°
Drops below altitude 10° 04:28:28 10° 2° (N) 1,494 5.2 -20.3°
Sets 04:30:38 0° 12° (NNE) 2,360 6.4 -20.0°
